Powrót do katalogu

SL-19 DEB

AktywnyUNKNOWN
NORAD 23485·DEBRIS·🇷🇺 Russia

Wystrzelony Dec 26, 1994 z Baikonur Cosmodrome

Loading…

Następne Przeloty (najbliższe 24 godziny)

TLE

ŚwieżeSource: Space-Track

Epoka: Sep 14, 2026, 07:54 UTC

1 23485U 94085H   26257.32949130 -.00005329  00000-0 -14511+0 0  9993
2 23485  64.6384  29.1404 0173431 174.2474 186.0495 11.29952869307367

Śledź SL-19 DEB w czasie rzeczywistym z AllMySat

Download on the App Store